Flag for U.S.A. Weather past 2 weeks in Mountain View, California, U.S.A.

Now
68 °F

Partly sunny.


Feels Like: 68 °F
Forecast: 62 / 77 °F
Wind: No wind

Location: Moffett Field

Current Time: Jul 22, 2014 at 2:35:16 PM

Latest Report: Jul 22, 2014 at 9:56 AM


Visibility: 10 mi

Pressure: 30.09 "Hg

Humidity: 65%

Dew point: 56 °F

Location of Mountain ViewLocation

Historic Weather in Mountain View — Graph

°F

Mountain View temperature yesterday

Maximum temperature yesterday: 77 °F (at 3:56 PM)
Minimum temperature yesterday: 65 °F (at 10:56 PM)
Average temperature yesterday: 70 °F

Past Weeks' High & Low Weather Summary

 TemperatureHumidityPressure
High81 °F (Jul 14, 12:56 PM)87% (Jul 8, 3:56 AM)30.11 "Hg (Jul 8, 3:56 AM)
Low59 °F (Jul 13, 4:56 AM)47% (Jul 7, 2:56 PM)29.84 "Hg (Jul 7, 6:56 PM)
Average68 °F70%29.97 "Hg
* Reported Jul 7 9:56 AM — Jul 22 9:56 AM, Mountain View, Weather by CustomWeather, © 2014

Note: Actual official high and low records may vary slightly from our data, if they occured in-between our weather recording intervals... More about our weather records

Advertising

Mountain View weather history for previous 24 hours

 ConditionsComfort  
Time TempWeatherWind HumidityBarometerVisibility
9:56 AM
Jul 22
68 °FPartly sunny.No wind65%30.09 "Hg10 mi
8:56 AM67 °FPartly sunny.No wind68%30.09 "Hg10 mi
7:56 AM65 °FOvercast.5 mph73%30.09 "Hg10 mi
6:56 AM64 °FOvercast.No wind73%30.07 "Hg10 mi
5:56 AM64 °FOvercast.3 mph73%30.06 "Hg10 mi
4:56 AM64 °FOvercast.5 mph75%30.06 "Hg10 mi
3:56 AM64 °FOvercast.5 mph73%30.05 "Hg10 mi
2:56 AM65 °FOvercast.5 mph78%30.06 "Hg10 mi
1:56 AM65 °FOvercast.6 mph78%30.06 "Hg10 mi
12:56 AM65 °FPassing clouds.5 mph78%30.06 "Hg10 mi
11:56 PM
Jul 21
65 °FPassing clouds.7 mph76%30.05 "Hg10 mi
10:56 PM65 °FClear.12 mph78%30.06 "Hg10 mi
9:56 PM66 °FClear.15 mph75%30.05 "Hg10 mi
8:56 PM69 °FSunny.14 mph63%30.03 "Hg10 mi
7:56 PM71 °FSunny.10 mph55%30.02 "Hg10 mi
6:56 PM75 °FSunny.9 mph50%30.01 "Hg10 mi
5:56 PM77 °FSunny.7 mph50%30.01 "Hg10 mi
4:56 PM77 °FSunny.8 mph52%30.01 "Hg10 mi
3:56 PM77 °FSunny.17 mph56%30.03 "Hg10 mi
2:56 PM76 °FSunny.20 mph58%30.04 "Hg10 mi
Weather by CustomWeather, © 2014

See weather overviewHow to use our weather pages